Theta_e
324 324 321 319 321 321 320 320 322 323 323 325 325 326 325 324 327 326 325 324 325 327
325 324 323 323 321 321 322 324 324 324 324 325 326 325 324 327 327 327 326 324 326 327
327 326 325 325 325 322 322 322 323 324 324 326 325 325 326 327 326 324 325 327 328 328
328 326 326 325 324 324 321 324 324 325 325 326 325 325 325 324 326 324 325 327 327 327
325 326 326 327 326 325 324 324 325 326 326 328 326 325 326 326 326 324 323 324 326 327
324 325 324 325 325 326 324 324 325 327 327 328 328 327 327 326 325 323 323 324 326 325
323 323 324 324 326 326 326 324 324 327 328 329 329 327 329 329 327 325 325 324 324 325
323 323 325 325 328 325 326 324 325 325 328 329 328 330 328 327 327 326 326 326 327 327
318 326 324 321 326 323 325 324 321 319 320 318 319 310 316 324 327 327 327 325 325 325
318 324 326 321 320 320 322 319 319 319 316 311 311 308 310 316 328 328 325 321 320 322
318 323 324 322 320 320 320 318 317 316 315 310 306 303 308 313 325 324 322 320 318 316
317 320 322 323 320 321 320 320 317 315 313 310 306 305 309 320 322 321 320 319 316 318
317 319 319 324 322 323 323 321 321 317 312 310 308 300 303 316 321 316 313 310 314 309
315 320 321 326 326 324 325 322 320 319 315 312 308 302 298 304 318 317 314 311 308 308
Wind_Speed
6 4 4 3 2 4 3 2 3 4 3 2 3 3 4 4 5 8 6 6 6 8
6 5 5 5 3 3 4 2 3 3 4 5 5 4 6 7 8 8 6 6 8 9
6 6 5 5 5 4 4 3 3 4 5 6 6 5 7 8 8 8 5 6 11 9
5 6 5 5 6 4 3 5 5 5 5 6 6 6 8 8 9 9 10 7 11 11
6 6 5 5 6 5 5 5 6 6 6 6 6 7 9 10 9 9 9 10 9 11
6 7 5 6 6 6 6 5 5 6 6 6 6 8 7 9 9 7 7 7 10 11
6 6 6 6 7 6 6 7 5 3 7 6 6 7 10 10 10 8 7 6 7 8
6 5 5 6 6 7 6 6 6 5 6 6 6 6 10 9 9 10 8 6 7 7
4 4 6 9 5 7 6 7 8 8 8 6 3 11 12 9 9 9 7 8 6 6
5 5 6 6 6 7 7 7 8 9 8 6 5 11 12 12 8 8 7 6 6 6
7 7 7 6 7 8 6 7 6 7 8 8 4 9 11 13 8 6 7 7 7 6
8 8 7 8 8 5 7 5 5 6 7 7 4 9 11 9 6 6 6 5 6 8
9 9 8 8 8 5 4 5 6 6 7 7 6 5 10 8 5 6 5 5 5 11
9 11 9 10 6 6 5 4 5 7 7 7 6 5 8 8 4 6 5 5 3 3
Wind_Direction
116 120 108 89 62 92 99 118 118 116 126 140 153 142 121 92 83 85 91 97 91 118
136 139 140 123 92 87 106 116 131 151 149 149 150 155 112 101 91 74 68 74 95 110
155 154 150 143 131 97 137 112 113 124 118 119 125 121 109 100 93 91 74 91 107 100
157 136 118 115 120 129 127 132 123 125 125 125 125 116 106 102 102 95 107 108 123 112
109 114 107 109 132 129 111 124 136 122 125 112 112 107 115 113 109 113 112 121 130 119
112 117 126 128 123 123 115 101 117 122 118 112 116 124 111 118 113 110 114 122 129 134
135 136 154 147 128 124 121 117 120 133 143 146 141 122 122 125 123 123 112 118 126 128
157 185 173 116 135 128 123 134 130 99 116 99 111 125 125 127 128 130 127 124 121 128
153 157 114 127 154 135 137 104 96 87 86 75 81 121 124 135 131 132 138 137 129 134
173 144 128 124 114 119 127 110 106 110 108 109 110 135 127 123 132 136 142 142 141 156
171 152 141 124 103 90 115 122 121 111 113 107 84 115 140 135 149 143 152 153 158 149
164 160 152 139 136 124 116 122 127 129 121 118 98 97 134 125 133 127 135 141 144 131
159 163 158 151 148 143 134 131 142 141 146 146 135 92 93 106 119 110 116 95 108 133
155 166 155 152 143 145 148 162 142 151 160 158 162 136 105 105 126 138 136 133 131 113